Location: Unspecified
(39.6691°N, 0.0000°E)
Time: 13:56:01
(UTC+00:00)

S-56A Canister/Altair - Visible Passes

Search period start: 04 April 2026 00:00
Search period end: 14 April 2026 00:00
Orbit: 632 x 2485 km, 38.9° (Epoch: 28 March)

Date Brightness Start Highest point End Pass type
(mag) Time Alt. Az. Time Alt. Az. Time Alt. Az.
6 Apr 11.6 04:51:23 10° SSE 04:58:53 17° SE 05:06:57 10° E visible
7 Apr 11.6 04:18:26 10° SSE 04:23:39 13° SE 04:29:13 10° E visible
10 Apr 11.1 04:31:13 10° S 04:40:49 28° SE 04:52:10 10° E visible
11 Apr 11.0 03:57:07 10° S 04:05:34 23° SE 04:15:34 10° E visible
12 Apr 11.0 03:23:21 10° SSE 03:30:25 19° SE 03:38:40 10° E visible
13 Apr 11.1 02:50:12 10° SSE 02:55:21 14° ESE 03:01:12 10° E visible
13 Apr 10.5 04:47:39 10° SSW 04:58:24 47° SE 05:12:04 10° ENE visible
